Regional Weather Roundup
Issued by NWS Lake Charles, LA

Home | Current Version | Previous Version | Text Only | Print | Product List | Glossary On
Versions: 1 2 3 4 5 6 7 8 9 10 11 12 13 14 15 16 17 18 19 20 21 22 23 24 25 26 27 28 29 30 31 32 33 34 35 36 37 38 39 40 41 42 43 44 45 46 47 48 49 50
186
ASUS44 KLCH 270510
RWRLCH
REGIONAL WEATHER ROUNDUP
NATIONAL WEATHER SERVICE LAKE CHARLES LA
1100 PM CST SUN FEB 26 2017

Note: "fair" indicates few or no clouds below 12,000 feet with no
significant weather and/or obstructions to visibility.


ACROSS SOUTHEAST TEXAS

CITY           SKY/WX    TMP DP  RH WIND       PRES   REMARKS
BEAUMONT       CLOUDY    68  63  84 E14       29.99S
BEAUMONT CITY  CLOUDY    68  63  84 SE9       29.98F
ORANGE         CLOUDY    67  64  91 SE8       30.02S FOG
JASPER         PTCLDY    65  61  86 E5        30.01S
$$

ACROSS CENTRAL LOUISIANA

CITY           SKY/WX    TMP DP  RH WIND       PRES   REMARKS
LEESVILLE      CLOUDY    64  58  82 SE13      30.00F
FULLERTON      CLOUDY    65  57  75 VRB5      29.99F
ALEXANDRIA INT MOCLDY    60  52  74 SE14      30.01F
ESLER FIELD    CLOUDY    60  52  74 SE6       30.03S
DERIDDER       CLOUDY    65  59  81 SE8       30.02F
OAKDALE        CLOUDY    64  56  77 SE5       30.03R
OPELOUSAS      MOCLDY    62  54  75 MISG      30.04S
$$

ACROSS SOUTHWEST AND SOUTH CENTRAL LOUISIANA

CITY           SKY/WX    TMP DP  RH WIND       PRES   REMARKS
SULPHUR        CLOUDY    66  62  86 E9        30.01F
LAKE CHARLES   CLOUDY    65  61  87 SE13      30.01S
CHENNAULT INT  CLOUDY    64  61  87 SE12G17   30.02S
CAMERON PHI    CLOUDY    66  64  94 SE12      30.00S
DEQUINCY       CLOUDY    65  60  84 SE9       30.01S
JENNINGS       FAIR      64  58  80 SE13      30.02S
LAFAYETTE      CLOUDY    68  58  70 SE6       30.04F
NEW IBERIA     CLOUDY    66  57  72 SE13      30.05S
ABBEVILLE      CLOUDY    64  63  94 E8        30.04F
PATTERSON      CLOUDY    66  60  81 E10       30.05F
SALT POINT       N/A     65  60  84 E5        30.04S
$$

SELECTED SITES ACROSS THE REGION

CITY           SKY/WX    TMP DP  RH WIND       PRES   REMARKS
HOUSTON BUSH   CLOUDY    67  64  90 SE8       29.96S
HOUSTON HOBBY  CLOUDY    69  65  86 SE9       29.96S
GALVESTON      CLOUDY    69  67  93 SE12      29.97R
COLLEGE STAT   CLOUDY    66  62  87 S10       29.94R
CONROE         CLOUDY    66  62  87 SE9       29.96F
HUNTSVILLE     MOCLDY    66  60  81 SE8G18    29.94S
LUFKIN         CLOUDY    64  59  83 SE10      29.95F
SHREVEPORT     CLOUDY    65  57  75 S13G24    29.95S
MONROE         MOCLDY    60  49  66 S10       30.01F
NATCHEZ MS     CLOUDY    59  48  67 SE16      30.05F
BATON ROUGE    CLOUDY    62  55  77 E7        30.07F
N.O. INTL ARPT MOCLDY    65  58  78 SE12      30.08F
SLIDELL        MOCLDY    60  55  83 E6        30.10F
$$

MARINE REPORTS

STATION/POSITION TIME  SKY/WX   TEMP    WIND        PRES    VSBY
                                AIR SEA DIR/SP/G
                 (UTC)          (F)     (DEG/KT/KT) (MB)    (MI)
BUOY 30 S HIGH I 0450            67 66  130/ 10/ 12 1014.8F
WVE H/P(F/S)=  3/ 6

SEA RIM ST PARK  0400            67     120/  9/ 11 1016.2R
PORT ARTHUR      0448               66  130/  6/  9 1016.0F
SABINE PASS N    0442            66 68  110/ 10/ 14 1016.7F
TEXAS POINT      NOT AVBL
CALCASIEU PASS   0442            66 65  130/ 12/ 16   N/A
LK CHARLES BEACH 0442            66 65              1016.8R
MARSH ISLAND     0400            66                   N/A
FRESH WATER LOCK 0442            65 66   80/ 11/ 14 1017.3F
AMERADA PASS     0442            65 59   90/  8/  9 1017.4R
$$




USA.gov is the U.S. government's official web portal to all federal, state and local government web resources and services.